CW4086 Weather Reports


Display with metric or nautical units.
time (UTC)temp
F
wind
direction
speed
MPH
gust
MPH
rain 1hr
in
rain 24hr
in
rain mn
in
humidity
%
barometer
mb
20260901124604 62 92 1.0 2.0 0.00 0.00 0.00 36 1013.7
20260901124104 62 92 1.0 2.0 0.00 0.00 0.00 35 1013.7
20260901123604 63 92 1.0 2.0 0.00 0.00 0.00 35 1013.7
20260901123104 63 92 1.0 2.0 0.00 0.00 0.00 35 1013.7
20260901122604 63 92 1.0 2.0 0.00 0.00 0.00 36 1013.7
20260901122104 63 92 1.0 2.0 0.00 0.00 0.00 36 1013.8
20260901121604 63 92 1.0 2.0 0.00 0.00 0.00 35 1013.7
20260901121104 63 92 1.0 2.0 0.00 0.00 0.00 35 1013.7
20260901120604 63 92 1.0 2.0 0.00 0.00 0.00 35 1013.7
20260901115104 63 92 0.0 2.0 0.00 0.00 0.00 35 1013.7
20260901114104 63 92 1.0 2.0 0.00 0.00 0.00 34 1013.8
20260901113604 63 92 0.0 1.0 0.00 0.00 0.00 34 1013.8
20260901113104 64 92 0.0 1.0 0.00 0.00 0.00 34 1013.8
20260901112605 64 92 0.0 2.0 0.00 0.00 0.00 34 1013.9
20260901112104 64 92 1.0 2.0 0.00 0.00 0.00 34 1013.9
20260901111604 64 92 1.0 2.0 0.00 0.00 0.00 34 1014.0
20260901111104 64 92 1.0 2.0 0.00 0.00 0.00 34 1014.1
20260901110104 64 92 0.0 2.0 0.00 0.00 0.00 33 1014.1
20260901105607 64 92 1.0 2.0 0.00 0.00 0.00 33 1014.1
20260901105104 65 92 1.0 2.0 0.00 0.00 0.00 33 1014.1
20260901104103 65 92 1.0 2.0 0.00 0.00 0.00 34 1014.1
20260901103104 65 92 1.0 2.0 0.00 0.00 0.00 34 1014.0
20260901102604 65 92 1.0 2.0 0.00 0.00 0.00 33 1014.0
20260901101608 65 92 1.0 2.0 0.00 0.00 0.00 33 1014.0
20260901100604 65 92 1.0 2.0 0.00 0.00 0.00 33 1014.0
20260901100105 65 92 1.0 2.0 0.00 0.00 0.00 33 1014.0
20260901095604 65 92 1.0 2.0 0.00 0.00 0.00 33 1014.0
20260901095103 65 92 1.0 2.0 0.00 0.00 0.00 33 1013.9
20260901093604 65 92 1.0 2.0 0.00 0.00 0.00 36 1014.0
20260901093104 65 92 1.0 2.0 0.00 0.00 0.00 36 1013.9
20260901092604 65 92 1.0 2.0 0.00 0.00 0.00 36 1013.9
20260901092104 64 92 1.0 2.0 0.00 0.00 0.00 36 1014.0
20260901091604 64 92 1.0 2.0 0.00 0.00 0.00 36 1014.0
20260901091104 64 92 1.0 2.0 0.00 0.00 0.00 36 1014.0
20260901090604 64 92 1.0 2.0 0.00 0.00 0.00 36 1013.9
20260901090104 65 92 0.0 2.0 0.00 0.00 0.00 35 1013.9
20260901085104 65 92 1.0 2.0 0.00 0.00 0.00 34 1014.1
20260901084604 66 92 0.0 1.0 0.00 0.00 0.00 33 1014.1
20260901084104 66 92 0.0 2.0 0.00 0.00 0.00 33 1014.2
20260901083106 66 92 1.0 2.0 0.00 0.00 0.00 34 1014.2
20260901082603 66 92 1.0 2.0 0.00 0.00 0.00 36 1014.2
20260901082103 66 92 0.0 1.0 0.00 0.00 0.00 37 1014.2
20260901081605 66 92 0.0 2.0 0.00 0.00 0.00 37 1014.3
20260901081104 66 92 0.0 2.0 0.00 0.00 0.00 37 1014.3
20260901080604 66 92 1.0 2.0 0.00 0.00 0.00 36 1014.5
20260901080104 66 92 0.0 2.0 0.00 0.00 0.00 36 1014.5
20260901075604 66 92 0.0 2.0 0.00 0.00 0.00 36 1014.6
20260901075104 66 92 1.0 2.0 0.00 0.00 0.00 36 1014.5
20260901074604 67 92 0.0 1.0 0.00 0.00 0.00 36 1014.5
20260901074104 67 92 0.0 1.0 0.00 0.00 0.00 36 1014.4
20260901073604 67 92 0.0 1.0 0.00 0.00 0.00 35 1014.3
20260901073104 68 92 0.0 1.0 0.00 0.00 0.00 35 1014.3
20260901072604 68 92 0.0 1.0 0.00 0.00 0.00 35 1014.1
20260901072104 67 92 1.0 1.0 0.00 0.00 0.00 35 1014.1
20260901071104 67 92 1.0 2.0 0.00 0.00 0.00 33 1014.2
20260901070104 68 92 0.0 1.0 0.00 0.00 0.00 33 1014.2
20260901065612 68 92 0.0 1.0 0.00 0.00 0.00 32 1014.1
20260901065104 68 92 0.0 1.0 0.00 0.00 0.00 32 1014.1
20260901064604 68 92 0.0 1.0 0.00 0.00 0.00 32 1014.1
20260901064103 68 92 0.0 1.0 0.00 0.00 0.00 31 1014.1
20260901063604 68 92 0.0 1.0 0.00 0.00 0.00 31 1014.1
20260901063104 68 92 0.0 1.0 0.00 0.00 0.00 34 1014.1
20260901062604 69 92 0.0 0.0 0.00 0.00 0.00 33 1014.1
20260901062104 69 92 0.0 1.0 0.00 0.00 0.00 33 1014.1
20260901061604 69 92 0.0 1.0 0.00 0.00 0.00 32 1014.1
20260901061104 70 92 0.0 3.0 0.00 0.00 0.00 32 1014.0
20260901060604 70 92 0.0 3.0 0.00 0.00 0.00 32 1014.1
20260901060104 69 105 1.0 2.0 0.00 0.00 0.00 32 1014.0
20260901055609 70 105 0.0 1.0 0.00 0.00 0.00 34 1014.1
20260901055103 70 105 0.0 1.0 0.00 0.00 0.00 34 1014.1
20260901054604 70 105 0.0 1.0 0.00 0.00 0.00 34 1014.1
20260901054104 70 105 0.0 1.0 0.00 0.00 0.00 32 1014.1
20260901053604 70 105 0.0 0.0 0.00 0.00 0.00 32 1014.1
20260901053104 70 105 0.0 0.0 0.00 0.00 0.00 32 1014.1
20260901052605 70 105 0.0 0.0 0.00 0.00 0.00 32 1014.1
20260901052104 71 105 0.0 2.0 0.00 0.00 0.00 31 1014.1
20260901051604 71 105 0.0 3.0 0.00 0.00 0.00 31 1014.1
20260901051104 71 105 1.0 3.0 0.00 0.00 0.00 31 1014.1
20260901050604 71 107 0.0 1.0 0.00 0.00 0.00 32 1014.1
20260901050104 72 107 0.0 1.0 0.00 0.00 0.00 31 1014.0
20260901045610 72 107 0.0 1.0 0.00 0.00 0.00 32 1014.0
20260901044604 72 107 0.0 1.0 0.00 0.00 0.00 34 1014.0
20260901044104 72 108 0.0 3.0 0.00 0.00 0.00 35 1014.0
20260901043104 73 119 1.0 3.0 0.00 0.00 0.00 36 1014.0
20260901042604 73 120 0.0 0.0 0.00 0.00 0.00 35 1013.9
20260901042104 73 120 0.0 1.0 0.00 0.00 0.00 36 1013.8
20260901041604 73 120 0.0 2.0 0.00 0.00 0.00 35 1013.7
20260901041104 74 120 0.0 3.0 0.00 0.00 0.00 35 1013.6
20260901040104 74 130 1.0 3.0 0.00 0.00 0.00 33 1013.4
20260901035604 74 137 0.0 2.0 0.00 0.00 0.00 32 1013.4
20260901035104 74 137 0.0 1.0 0.00 0.00 0.00 33 1013.3
20260901034604 74 138 0.0 2.0 0.00 0.00 0.00 34 1013.3
20260901034104 75 137 1.0 2.0 0.00 0.00 0.00 34 1013.3
20260901033604 75 169 0.0 1.0 0.00 0.00 0.00 34 1013.3
20260901033104 75 169 0.0 1.0 0.00 0.00 0.00 33 1013.1
20260901032104 76 169 0.0 1.0 0.00 0.00 0.00 32 1013.0
20260901031604 76 169 0.0 2.0 0.00 0.00 0.00 32 1012.9
20260901031105 76 173 0.0 2.0 0.00 0.00 0.00 32 1012.8
20260901030603 76 174 0.0 1.0 0.00 0.00 0.00 31 1012.8
20260901030105 77 174 0.0 2.0 0.00 0.00 0.00 31 1012.8
20260901025608 77 174 0.0 2.0 0.00 0.00 0.00 31 1012.8
20260901024603 77 184 1.0 2.0 0.00 0.00 0.00 30 1012.7
20260901024103 78 82 0.0 2.0 0.00 0.00 0.00 31 1012.7
20260901023604 78 80 0.0 2.0 0.00 0.00 0.00 29 1012.6
20260901022603 79 181 0.0 2.0 0.00 0.00 0.00 28 1012.3
20260901022104 79 218 0.0 2.0 0.00 0.00 0.00 26 1012.3
20260901021604 80 236 0.0 2.0 0.00 0.00 0.00 24 1012.3
20260901021105 80 236 0.0 2.0 0.00 0.00 0.00 23 1012.3
20260901020105 81 235 1.0 3.0 0.00 0.00 0.00 22 1012.2
20260901015608 82 248 1.0 3.0 0.00 0.00 0.00 23 1012.2
20260901015103 82 270 2.0 3.0 0.00 0.00 0.00 22 1012.1
20260901014604 82 264 2.0 5.0 0.00 0.00 0.00 22 1012.0
20260901014104 83 241 2.0 5.0 0.00 0.00 0.00 22 1012.0
20260901013604 83 255 3.0 5.0 0.00 0.00 0.00 21 1012.1
20260901013104 83 250 2.0 7.0 0.00 0.00 0.00 21 1012.0
20260901012604 84 257 3.0 7.0 0.00 0.00 0.00 21 1012.0
20260901011604 85 259 2.0 6.0 0.00 0.00 0.00 21 1012.1
20260901011104 86 249 3.0 6.0 0.00 0.00 0.00 20 1012.0
20260901010604 86 238 2.0 6.0 0.00 0.00 0.00 21 1012.0
20260901010104 86 234 3.0 6.0 0.00 0.00 0.00 20 1012.0
20260901005609 86 264 3.0 6.0 0.00 0.00 0.00 19 1011.9
20260901004604 87 240 2.0 8.0 0.00 0.00 0.00 20 1011.8
20260901004103 87 244 2.0 8.0 0.00 0.00 0.00 21 1011.7
20260901003603 87 227 3.0 10.0 0.00 0.00 0.00 22 1011.7
20260901003104 87 242 4.0 10.0 0.00 0.00 0.00 23 1011.7
20260901002604 88 239 5.0 10.0 0.00 0.00 0.00 23 1011.6
20260901002104 88 249 3.0 9.0 0.00 0.00 0.00 24 1011.6
20260901001604 88 235 3.0 9.0 0.00 0.00 0.00 24 1011.6
20260901001104 89 254 4.0 9.0 0.00 0.00 0.00 23 1011.5
20260901000604 88 226 2.0 10.0 0.00 0.00 0.00 23 1011.5
20260901000104 89 260 5.0 10.0 0.00 0.00 0.00 23 1011.5
20260831235604 89 235 5.0 8.0 0.00 0.00 0.00 23 1011.5
20260831235104 90 266 5.0 8.0 0.00 0.00 0.00 22 1011.5
20260831234604 89 279 4.0 7.0 0.00 0.00 0.00 23 1011.5
20260831234105 89 239 3.0 8.0 0.00 0.00 0.00 24 1011.5
20260831233605 89 271 5.0 9.0 0.00 0.00 0.00 23 1011.5
20260831233104 90 266 5.0 9.0 0.00 0.00 0.00 24 1011.5
20260831232604 90 255 4.0 9.0 0.00 0.00 0.00 23 1011.5
20260831231603 90 256 4.0 12.0 0.00 0.00 0.00 24 1011.5
20260831231104 90 268 6.0 12.0 0.00 0.00 0.00 23 1011.5
20260831230107 90 237 6.0 10.0 0.00 0.00 0.00 23 1011.6
20260831225106 90 276 1.0 8.0 0.00 0.00 0.00 25 1011.6
20260831224604 89 262 5.0 7.0 0.00 0.00 0.00 26 1011.6
20260831224104 89 267 4.0 8.0 0.00 0.00 0.00 24 1011.9
20260831223604 89 281 4.0 8.0 0.00 0.00 0.00 24 1011.9
20260831223104 89 255 3.0 8.0 0.00 0.00 0.00 23 1011.9
20260831221604 90 269 3.0 8.0 0.00 0.00 0.00 22 1012.0
20260831220604 89 263 5.0 9.0 0.00 0.00 0.00 22 1012.1
20260831215104 89 275 5.0 8.0 0.00 0.00 0.00 24 1012.1
20260831214604 90 252 5.0 8.0 0.00 0.00 0.00 23 1012.1
20260831214104 89 271 4.0 12.0 0.00 0.00 0.00 24 1012.1
20260831212604 90 262 5.0 12.0 0.00 0.00 0.00 22 1012.3
20260831212103 89 276 4.0 12.0 0.00 0.00 0.00 22 1012.3
20260831211604 89 264 5.0 12.0 0.00 0.00 0.00 21 1012.6
20260831211104 89 274 3.0 8.0 0.00 0.00 0.00 21 1012.5
20260831210604 89 284 3.0 8.0 0.00 0.00 0.00 22 1012.6
20260831210106 89 270 3.0 9.0 0.00 0.00 0.00 21 1012.7
20260831205108 89 266 3.0 8.0 0.00 0.00 0.00 21 1012.7
20260831204604 88 265 5.0 7.0 0.00 0.00 0.00 20 1012.7
20260831204104 88 260 5.0 7.0 0.00 0.00 0.00 20 1012.7
20260831203604 89 280 4.0 9.0 0.00 0.00 0.00 22 1012.7
20260831202604 88 254 3.0 9.0 0.00 0.00 0.00 23 1012.6
20260831202104 88 276 5.0 7.0 0.00 0.00 0.00 23 1012.6
20260831201604 88 285 5.0 7.0 0.00 0.00 0.00 23 1012.6
20260831201104 88 265 3.0 7.0 0.00 0.00 0.00 24 1012.7
20260831200604 87 263 4.0 7.0 0.00 0.00 0.00 25 1012.7
20260831200104 87 287 5.0 8.0 0.00 0.00 0.00 24 1012.7
20260831195604 88 304 5.0 9.0 0.00 0.00 0.00 23 1012.8
20260831195104 88 243 3.0 9.0 0.00 0.00 0.00 21 1012.8
20260831194604 88 259 4.0 7.0 0.00 0.00 0.00 21 1012.8
20260831194105 88 273 4.0 7.0 0.00 0.00 0.00 22 1012.9
20260831193604 88 271 3.0 7.0 0.00 0.00 0.00 22 1012.9
20260831193104 87 221 4.0 9.0 0.00 0.00 0.00 21 1013.0
20260831192604 87 269 5.0 9.0 0.00 0.00 0.00 24 1013.0
20260831192104 86 281 3.0 7.0 0.00 0.00 0.00 27 1013.0
20260831191604 86 270 5.0 7.0 0.00 0.00 0.00 28 1013.1
20260831191104 85 298 4.0 7.0 0.00 0.00 0.00 26 1013.1
20260831190604 85 271 2.0 6.0 0.00 0.00 0.00 27 1013.1
20260831190106 85 273 5.0 6.0 0.00 0.00 0.00 29 1013.0
20260831185604 85 243 3.0 7.0 0.00 0.00 0.00 31 1013.1
20260831185107 84 281 3.0 7.0 0.00 0.00 0.00 31 1013.1
20260831184604 84 259 1.0 7.0 0.00 0.00 0.00 32 1013.1
20260831184103 84 268 2.0 5.0 0.00 0.00 0.00 32 1013.1
20260831183604 84 253 3.0 6.0 0.00 0.00 0.00 32 1013.2
20260831183103 83 291 2.0 7.0 0.00 0.00 0.00 32 1013.2
20260831182604 83 283 3.0 8.0 0.00 0.00 0.00 33 1013.2
20260831182106 83 297 3.0 8.0 0.00 0.00 0.00 35 1013.2
20260831181104 82 272 3.0 6.0 0.00 0.00 0.00 38 1013.1
20260831180604 81 283 3.0 6.0 0.00 0.00 0.00 38 1013.2
20260831180104 81 274 3.0 6.0 0.00 0.00 0.00 41 1013.1
20260831175104 80 286 2.0 6.0 0.00 0.00 0.00 43 1013.0
20260831174604 80 275 3.0 6.0 0.00 0.00 0.00 44 1013.0
20260831174104 80 280 3.0 5.0 0.00 0.00 0.00 43 1013.0
20260831173604 79 255 3.0 5.0 0.00 0.00 0.00 45 1013.0
20260831173103 79 260 2.0 5.0 0.00 0.00 0.00 45 1013.1
20260831172603 79 271 2.0 5.0 0.00 0.00 0.00 48 1013.1
20260831172104 78 279 3.0 5.0 0.00 0.00 0.00 46 1013.1
20260831171604 78 314 1.0 5.0 0.00 0.00 0.00 48 1013.1
20260831171104 77 311 2.0 3.0 0.00 0.00 0.00 49 1013.0
20260831170109 76 254 2.0 3.0 0.00 0.00 0.00 50 1012.9
20260831165604 76 274 2.0 3.0 0.00 0.00 0.00 49 1012.9
20260831165110 75 298 2.0 3.0 0.00 0.00 0.00 50 1012.8
20260831164604 75 270 2.0 3.0 0.00 0.00 0.00 49 1012.9
20260831164105 74 273 2.0 3.0 0.00 0.00 0.00 52 1012.9
20260831163604 74 275 2.0 3.0 0.00 0.00 0.00 53 1012.9
20260831163104 73 263 1.0 3.0 0.00 0.00 0.00 53 1012.9
20260831162604 73 261 1.0 3.0 0.00 0.00 0.00 50 1013.0
20260831162104 73 269 1.0 3.0 0.00 0.00 0.00 49 1013.0
20260831161604 72 269 1.0 3.0 0.00 0.00 0.00 48 1013.0
20260831160604 71 260 2.0 3.0 0.00 0.00 0.00 50 1012.9
20260831160104 71 270 2.0 3.0 0.00 0.00 0.00 50 1012.9
20260831155604 71 270 2.0 3.0 0.00 0.00 0.00 51 1012.8
20260831155104 70 272 2.0 3.0 0.00 0.00 0.00 51 1012.8
20260831154604 70 254 2.0 3.0 0.00 0.00 0.00 50 1012.9
20260831153604 69 194 2.0 3.0 0.00 0.00 0.00 54 1012.8
20260831153104 69 152 0.0 3.0 0.00 0.00 0.00 57 1012.7
20260831152104 68 148 1.0 3.0 0.00 0.00 0.00 60 1012.5
20260831151604 68 148 1.0 3.0 0.00 0.00 0.00 61 1012.5
20260831151104 68 148 1.0 2.0 0.00 0.00 0.00 61 1012.5
20260831150107 68 148 0.0 2.0 0.00 0.00 0.00 64 1012.4
20260831145603 68 148 1.0 2.0 0.00 0.00 0.00 63 1012.4
20260831143604 66 148 0.0 0.0 0.00 0.00 0.00 60 1012.4
20260831143104 66 148 0.0 0.0 0.00 0.00 0.00 60 1012.4
20260831142604 66 148 0.0 0.0 0.00 0.00 0.00 62 1012.4
20260831142104 65 148 0.0 0.0 0.00 0.00 0.00 65 1012.4
20260831141104 65 148 0.0 0.0 0.00 0.00 0.00 65 1012.3
20260831140606 65 148 0.0 0.0 0.00 0.00 0.00 64 1012.3
20260831140104 65 148 0.0 1.0 0.00 0.00 0.00 63 1012.2
20260831135605 65 148 0.0 1.0 0.00 0.00 0.00 62 1012.2
20260831135104 65 148 1.0 1.0 0.00 0.00 0.00 61 1012.1
20260831134604 65 148 0.0 2.0 0.00 0.00 0.00 58 1012.1
20260831134104 65 148 0.0 2.0 0.00 0.00 0.00 54 1012.0
20260831133604 64 148 1.0 3.0 0.00 0.00 0.00 54 1012.0
20260831133104 64 148 2.0 3.0 0.00 0.00 0.00 56 1011.9
20260831132604 64 148 0.0 2.0 0.00 0.00 0.00 59 1011.9
20260831132104 63 148 0.0 1.0 0.00 0.00 0.00 56 1012.0
20260831131604 64 148 0.0 2.0 0.00 0.00 0.00 53 1011.9
20260831131104 64 148 0.0 3.0 0.00 0.00 0.00 52 1011.9
20260831130606 63 148 1.0 3.0 0.00 0.00 0.00 52 1011.9
20260831130107 63 148 0.0 0.0 0.00 0.00 0.00 62 1011.8
20260831125604 64 148 0.0 0.0 0.00 0.00 0.00 68 1011.8